Flag for South Korea Weather past 2 weeks in Incheon, South Korea

Now
77 °F

Fog.


Feels Like: 78 °F
Forecast: 74 / 84 °F
Wind: 9 mph from South

Location: Incheon International Airport

Current Time: Aug 1, 2015 at 2:46:23 AM

Latest Report: Aug 1, 2015 at 2:00 AM


Visibility: 3 mi

Pressure: 29.77 "Hg

Humidity: 83%

Dew point: 72 °F

Location of IncheonLocation

Historic Weather in Incheon — Graph

°F

Incheon temperature yesterday

Maximum temperature yesterday: 84 °F (at 1:00 PM)
Minimum temperature yesterday: 75 °F (at 12:00 AM)
Average temperature yesterday: 79 °F

Past Weeks' High & Low Weather Summary

 TemperatureHumidityPressure
High88 °F (Jul 30, 1:30 PM)94% (Jul 19, 4:00 AM)29.89 "Hg (Jul 19, 4:00 AM)
Low64 °F (Jul 17, 2:30 AM)28% (Jul 17, 1:30 PM)29.62 "Hg (Jul 24, 6:00 AM)
Average76 °F77%29.74 "Hg
* Reported Jul 17 1:00 AM — Aug 1 1:30 AM, Incheon, Weather by CustomWeather, © 2015

Note: Actual official high and low records may vary slightly from our data, if they occured in-between our weather recording intervals... More about our weather records

Advertising

Incheon weather history for previous 24 hours

 ConditionsComfort  
Time TempWeatherWind HumidityBarometerVisibility
1:30 AM
Sat, Aug 1
77 °FFog.9 mph83%29.80 "Hg3 mi
1:00 AM77 °FFog.9 mph83%29.80 "Hg3 mi
12:30 AM77 °FFog.8 mph83%29.80 "Hg3 mi
12:00 AM77 °FFog.7 mph83%29.80 "Hg3 mi
11:30 PM
Fri, Jul 31
77 °FFog.7 mph83%29.80 "Hg3 mi
11:00 PM77 °FFog.8 mph83%29.80 "Hg3 mi
10:30 PM77 °FFog.8 mph83%29.80 "Hg3 mi
10:00 PM75 °FFog.7 mph89%29.80 "Hg3 mi
9:30 PM75 °FFog.5 mph89%29.80 "Hg3 mi
9:00 PM77 °FFog.6 mph83%29.80 "Hg3 mi
8:30 PM77 °FFog.1 mph83%29.77 "Hg3 mi
8:00 PM77 °FFog.5 mph83%29.77 "Hg3 mi
7:30 PM77 °FPartly sunny.3 mph83%29.77 "Hg4 mi
7:00 PM79 °FPartly sunny.7 mph79%29.77 "Hg4 mi
6:30 PM79 °FPartly sunny.10 mph74%29.80 "Hg4 mi
6:00 PM79 °FBroken clouds.8 mph79%29.80 "Hg4 mi
5:30 PM79 °FBroken clouds.9 mph79%29.80 "Hg4 mi
4:30 PM81 °FBroken clouds.8 mph74%29.80 "Hg5 mi
4:00 PM81 °FBroken clouds.15 mph70%29.80 "Hg5 mi
3:30 PM82 °FBroken clouds.10 mph66%29.80 "Hg5 mi
3:00 PM82 °FBroken clouds.9 mph66%29.80 "Hg5 mi
2:30 PM84 °FBroken clouds.12 mph62%29.80 "Hg5 mi
2:00 PM84 °FBroken clouds.10 mph62%29.80 "Hg5 mi
1:30 PM84 °FBroken clouds.15 mph62%29.80 "Hg4 mi
1:00 PM84 °FBroken clouds.10 mph66%29.80 "Hg4 mi
12:30 PM82 °FBroken clouds.9 mph70%29.80 "Hg3 mi
12:00 PM82 °FBroken clouds.8 mph70%29.80 "Hg3 mi
11:30 AM81 °FFog.9 mph74%29.80 "Hg3 mi
11:00 AM79 °FFog.8 mph79%29.83 "Hg3 mi
10:30 AM79 °FFog.9 mph79%29.83 "Hg3 mi
10:00 AM81 °FFog.9 mph74%29.80 "Hg3 mi
9:30 AM79 °FFog.6 mph79%29.80 "Hg2 mi
9:00 AM79 °FFog.8 mph79%29.80 "Hg2 mi
8:30 AM79 °FFog.8 mph79%29.80 "Hg2 mi
8:00 AM77 °FFog.10 mph83%29.80 "Hg2 mi
7:30 AM77 °FFog.10 mph83%29.80 "Hg2 mi
7:00 AM77 °FFog.14 mph83%29.80 "Hg2 mi
6:30 AM77 °FFog.10 mph83%29.80 "Hg2 mi
6:00 AM75 °FFog.9 mph89%29.80 "Hg2 mi
5:30 AM77 °FFog.7 mph83%29.80 "Hg2 mi
5:00 AM77 °FFog.7 mph83%29.80 "Hg1 mi
4:30 AM77 °FFog.5 mph89%29.80 "Hg1 mi
4:00 AM77 °FFog.7 mph89%29.77 "Hg1 mi
3:30 AM77 °FFog.10 mph89%29.77 "Hg1 mi
3:00 AM77 °FFog.10 mph89%29.74 "Hg1 mi
2:30 AM77 °FFog.9 mph89%29.77 "Hg1 mi
2:00 AM77 °FFog.9 mph89%29.77 "Hg1 mi
Weather by CustomWeather, © 2015

See weather overviewHow to use our weather pages